User: anonymous   Login
Location: Chagrin Falls Park
(41.4139°N, 81.3865°W)
Time: 13:22:13
(UTC+00:00)
Language:

ISS - Orbit

View from above orbital plane
View from above orbital plane
View from above satellite
View from above satellite

Ground track
Ground track

The orbit data is extracted from the following two-line orbital elements,

1 25544U 98067A   21260.38326868  .00002108  00000-0  47329-4 0  9995
2 25544  51.6436 246.8533 0003182  25.6729 121.4393 15.48402825302886
Epoch (UTC): 17 September 2021 09:11:54
Eccentricity: 0.0003182
inclination: 51.6436°
perigee height: 419 km
apogee height: 423 km
right ascension of ascending node: 246.8533°
argument of perigee: 25.6729°
revolutions per day: 15.48402825
mean anomaly at epoch: 121.4393°
orbit number at epoch: 30288

The dashed part of the orbit path shows where the satellite is in the earth's shadow,  

DLR